Hourly Data Report for September 10, 2017

All times are specified in Local Standard Time (LST). Add 1 hour to adjust for Daylight Saving Time where and when it is observed.

NAPPAN AUTO
NOVA SCOTIA

45°45'34.400" N
64°14'29.200" W
19.80 m
8203702
71311
XNP

Download Data

Hourly Data (September 2017)
Hourly Data Report for September 10, 2017
Temp Definition
°C
Dew Point Temp Definition
°C
Rel Hum Definition
%
Wind Dir Definition
10's deg

Wind Spd Definition
km/h
Visibility Definition
km
Stn Press Definition
kPa
Hmdx Definition


Wind Chill Definition


Weather Definition


TIME
00:00 14.0 13.1 94 35 7   102.06     LegendNANA
01:00 13.9 13.1 95 36 9   102.05     LegendNANA
02:00 14.1 13.3 95 35 8   102.02     LegendNANA
03:00 13.8 13.1 95 2 8   102.00     LegendNANA
04:00 14.2 13.2 94 1 11   102.03     LegendNANA
05:00 14.0 12.9 94 1 9   102.07     LegendNANA
06:00 13.9 12.8 93 36 13   102.10     LegendNANA
07:00 13.9 11.9 88 36 16   102.16     LegendNANA
08:00 14.6 11.7 83 1 14   102.16     LegendNANA
09:00 16.1 10.4 69 36 23   102.16     LegendNANA
10:00 16.0 10.3 69 1 21   102.17     LegendNANA
11:00 16.4 9.7 65 1 21   102.13     LegendNANA
12:00 17.1 9.9 62 2 17   102.07     LegendNANA
13:00 17.2 8.8 58 1 19   102.01     LegendNANA
14:00 17.9 9.9 59 2 21   101.95     LegendNANA
15:00 17.0 9.7 62 3 17   101.89     LegendNANA
16:00 16.3 9.5 64 2 20   101.88     LegendNANA
17:00 16.9 10.6 66 2 15   101.86     LegendNANA
18:00 14.9 10.2 74 3 11   101.85     LegendNANA
19:00 13.0 9.7 80 3 3   101.86     LegendNANA
20:00 10.9 9.1 88   0   101.88     LegendNANA
21:00 10.7 9.4 92 0 1   101.85     LegendNANA
22:00 8.8 7.9 94 17 4   101.81     LegendNANA
23:00 8.2 7.7 97 17 5   101.76     LegendNANA

Notes on Data Quality.

Legend

  • E = Estimated
  • M = Missing
  • NA = Not Available
  • ‡ = Partner data that is not subject to review by the National Climate Archives
Date modified: